Racecast

Northfield Nighthawk Invitational

Stapleton Central Park · 5000m · Girls · Compiled · CO

77 runners from 2 divisions

These divisions were run separately. This is how their times compare, not how they finished — the places and scores below were never contested.

View full meet →

Team scores

Place Team Points 12345 67
1 Grandview (CO) 34 3 4 8 9 10 11 17
2 Northfield (CO) 46 2 5 12 13 14 15 19
3 George Washington (CO) 48 1 6 7 16 18 20 23
4 Arrupe Jesuit (CO) 118 21 22 24 25 26

Not scored, fewer than five finishers: Strasburg (4), Denver West (3), Gateway (2), Vanguard (2), KIPP Northeast (Regis Groff) (2), Sheridan (2), Northfield (1), Grandview (1)

Results

Place Athlete Grade School Time Rating Points Actual race
1 Anne Reilly 10 George Washington (WV) 1 19:04.0 134.2 1 1
2 Taylor Buese 9 Northfield (MN) 1 19:10.0 133.6 2 2
3 Malia Heien 12 Northfield (MN) 1 19:39.0 3
4 Megan Ericksen 12 Grandview (WA) 1 19:47.0 129.4 3 4
5 Ashlynn Mojica 10 Grandview (WA) 2 19:53.0 128.7 4 5
6 Gabriela Kobak 11 Northfield (MN) 2 20:02.0 127.8 5 6
7 Elizabeth Jenulis 11 George Washington (WV) 2 20:30.0 124.9 6 7
8 Tessa Olsen 10 George Washington (WV) 3 20:30.0 124.9 7 8
9 Grace Kirkpatrick 11 Grandview (WA) 3 21:16.0 120.4 8 9
10 Summer Abeyta 10 Grandview (WA) 4 21:25.0 119.5 9 10
11 Julia Pace 10 Grandview (WA) 5 21:36.0 118.5 10 11
12 Emma Thomure 12 Grandview (WA) 6 21:48.0 117.4 11 12
13 Quynh MacKenzie 11 Northfield (MN) 3 21:53.0 117.0 12 13
14 Tessa Mair 9 Northfield (MN) 4 21:53.0 117.0 13 14
15 Alessi Kwan 10 Northfield (MN) 5 22:11.0 115.4 14 15
16 Jayla Sanderson 12 Northfield (MN) 6 22:13.0 115.2 15 16
17 Grace Farrell 10 George Washington (WV) 4 22:39.0 113.0 16 17
18 Emerson Rohrig 10 Grandview (WA) 7 22:40.0 112.9 17 18
19 Khadeeja Rashid 11 Grandview (WA) 8 22:52.0 111.9 1
20 Cameron Mojica 9 Grandview (WA) 9 23:00.0 111.3 19
21 Lily Emmanuel 11 Denver West (CO) 1 23:00.0 111.3 20
22 Destiny Rodriguez 9 Grandview (WA) 10 23:19.0 109.8 2
23 Charliray Jackson 12 Strasburg (VA) 1 23:19.0 109.8 21
24 Sophie Graham 11 George Washington (WV) 5 23:22.0 109.5 18 22
25 Kadia Crumb 9 Grandview (WA) 11 23:28.0 109.1 23
26 Regan Hayes 10 Northfield (MN) 7 23:30.0 108.9 19 24
27 Leona Ferguson 10 Gateway (WA) 1 23:41.0 108.1 25
28 Sophie Lieb 9 Northfield (MN) 8 23:43.0 107.9 3
29 Kelsey Dennis 11 Northfield (MN) 9 23:46.0 107.7 26
30 Wynn Rutberg 9 Northfield (MN) 10 23:54.0 107.1 4
31 Abbey Jasinowski 9 Grandview (WA) 12 24:00.0 106.7 5
32 Emily Handy 12 Strasburg (VA) 2 24:09.0 106.0 27
33 Meredith Mounier 11 Grandview (WA) 13 24:13.0 105.7 6
34 Nora Krasner 9 Northfield (MN) 11 24:13.0 105.7 7
35 Fiona Cahill 9 Northfield (MN) 12 24:18.0 105.3 8
36 Elise Wu 10 Northfield (MN) 13 24:21.0 105.1 9
37 Charly Stansbury 9 Northfield (MN) 14 24:26.0 104.8 10
38 Julia Fligg 9 Northfield (MN) 15 24:31.0 104.4 11
39 Campbell Levy 9 Northfield (MN) 16 24:38.0 103.9 12
40 Jazlin Aguilar Llamas 9 Vanguard (FL) 1 24:56.0 102.7 13
41 Helena Wang-lohnes 10 Northfield (MN) 17 25:07.0 101.9 14
42 Anna Wehrenberg 10 Grandview (WA) 14 25:11.0 101.6 15
43 Angel Tinoco 10 Denver West (CO) 2 25:12.0 101.6 28
44 Kate Taylor 9 George Washington (WV) 6 25:19.0 101.1 20 29
45 Elaina Lyons 11 Northfield (MN) 18 25:27.0 100.6 16
46 Piper Maurer 9 Northfield (MN) 19 25:31.0 100.3 30
47 Marie Jordan 10 Strasburg (VA) 3 25:41.0 99.7 31
48 Lydia Wallace 9 Grandview (WA) 15 26:20.0 97.2 17
49 Kacey Anderson 9 Northfield (MN) 20 26:21.0 97.1 18
50 Ava Oliva 9 Northfield (MN) 21 26:23.0 97.0 19
51 Mariana Hernandez 9 Arrupe Jesuit (CO) 1 26:25.0 96.9 21 20
52 Janhavi Kulkarni 12 Grandview (WA) 16 26:38.0 96.1 21
53 Ishany Rojas Gonzalez 11 Grandview (WA) 1 26:43.0 95.8 22
54 Abigail Kerns 11 Grandview (WA) 17 26:49.0 95.5 23
55 Grace Oltersdorf 10 Northfield (MN) 22 27:09.0 94.3 24
56 Giselle Martinez Lasalde 9 Arrupe Jesuit (CO) 2 27:16.0 93.9 22 25
57 Elisa Cardona-lamas 12 KIPP Northeast (Regis Groff) (CO) 1 27:18.0 93.8 32
58 Josepina Maes Farone 10 George Washington (WV) 7 27:26.0 93.3 23 33
59 Campbell Charles 10 Grandview (WA) 18 27:46.0 92.2 26
60 Vivienne Sansone-poe 9 Grandview (WA) 19 28:00.0 91.4 27
61 Sua Longoria 11 Sheridan (WY) 1 28:05.0 91.1 28
62 Jenny Ruano 9 Denver West (CO) 3 28:20.0 90.3 34
63 Cadence Valdez 9 Grandview (WA) 20 28:24.0 90.1 29
64 Ailyn Garcia-casillas 9 KIPP Northeast (Regis Groff) (CO) 2 28:35.0 89.5 35
65 Addison Whittington 9 Northfield (MN) 23 28:47.0 88.9 30
66 Nya Taylor 12 Northfield (MN) 24 28:57.0 88.4 31
67 Talulah Miles 10 Northfield (MN) 25 29:06.0 88.0 32
68 Annabel Wood 10 Grandview (WA) 21 29:13.0 87.6 33
69 Alicia Rodriguez 11 Sheridan (WY) 2 29:21.0 87.2 34
70 Isabelle Kingston 11 Gateway (WA) 2 30:03.0 85.2 36
71 Gisela Benavides 9 Arrupe Jesuit (CO) 3 31:01.0 82.5 24 35
72 Atany Peter 9 Arrupe Jesuit (CO) 4 31:03.0 82.4 25 36
73 Lorelai Le fors 10 Strasburg (VA) 4 31:37.0 81.0 37
74 Isabella Putnam 12 Northfield (MN) 26 35:23.0 72.3 37
75 Silva Navarrete 10 Arrupe Jesuit (CO) 5 35:43.0 71.7 26 38
76 Denisse Cruz Saenz 9 Vanguard (FL) 2 39:29.0 64.8 39
77 Hannah Dienhart 11 Grandview (WA) 22 41:39.0 61.5 40